www.pogodaiklimat.ru

АРХИВ ПОГОДЫ в Харькове

Время (UTC), дата Ветер
(напр.,м/с)
 
Видим.   Явления Облачность Т
(С)
Тd
(С)
f
(%)
Тe
(С)
Тes
(С)
Комфортность P
(гПа)
Po
(гПа)
Тmin
(С)
Tmax
(С)
R
(мм)
S
(см)
15 22.09 ЮЗ 4 10 км {ливн. осадки} 6/5 600 м
[Cb cap Ac trans]
+11.3 +6.0 70 +9 +9 холодно 1011.2 992.7
18 22.09 Ю 3 10 км {ливн. осадки} 9/9 600 м
[Cb cap]
+8.4 +6.9 90 +6 +6 холодно 1012.9 994.1 +14.4 0.4
21 22.09 Ю 2 10 км ясно +6.6 +5.2 91 +4 +4 холодно 1013.6 994.7
00 23.09 Ю 1 10 км 8/8 600 м
[Sc]
+6.4 +5.5 94 +5 +5 прохладно 1014.2 995.3
03 23.09 Ю 2 4000 м дымка 3/3 300 м
[St]
+4.9 +4.2 95 +2 +2 холодно 1015.2 996.2
06 23.09 Ю 2 10 км 5/5 300 м
[St]
+8.0 +5.8 86 +6 +7 прохладно 1016.3 997.5 +4.1
09 23.09 ЮЗ 4 10 км 6/6 1000 м
[Cu hum]
+12.7 +5.2 60 +11 +13 прохладно 1016.4 997.9
12 23.09 З 3 10 км 8/8 1000 м
[Cu hum]
+14.9 +4.6 50 +14 +15 прохладно 1017.2 998.8
15 23.09 З 4 10 км 4/4 1000 м
[Cu hum]
+13.5 +3.5 51 +12 +12 по сезону 1018.6 1000.1
18 23.09 З 2 10 км 3/0
[Ac trans]
+8.8 +6.2 84 +7 +7 прохладно 1020.7 1001.8 +15.5
21 23.09 СЗ 1 4200 м дымка ясно +6.1 +5.0 93 +5 +5 холодно 1021.5 1002.4
00 24.09 З 1 300 м туман ясно +4.9 +4.9 100 +3 +3 холодно 1021.5 1002.3
03 24.09 штиль 0 200 м туман ?/? +2.2 +2.2 100 +1 +1 очень
холодно
1022.1 1002.7
06 24.09 З 1 10 км {туман} 4/0
[Ac trans]
+7.6 +5.4 86 +7 +9 прохладно 1022.4 1003.4 +1.9
09 24.09 СЗ 4 10 км 8/6 1000 м
[Cu med, cong Ac trans]
+13.8 +4.2 52 +13 +14 по сезону 1021.7 1003.1
12 24.09 С 2 10 км 9/6 1000 м
[Cu med, cong Ac trans]
+14.2 +2.8 46 +14 +15 прохладно 1020.9 1002.4
15 24.09 СЗ 1 10 км 9/4 1000 м
[Sc diur, vesp Ac trans]
+13.2 +3.9 53 +14 +14 по сезону 1020.9 1002.3
18 24.09 СЗ 1 10 км 8/0
[Ci fib]
+11.2 +3.5 59 +11 +11 по сезону 1020.9 1002.2 +15.5
21 24.09 З 2 10 км 9/0
[Ac trans Ci fib]
+9.3 +4.3 71 +8 +8 по сезону 1020.4 1001.6
00 25.09 З 2 10 км 9/4 1000 м
[Sc Ac trans]
+9.2 +5.2 76 +8 +8 по сезону 1019.0 1000.2
03 25.09 З 2 10 км {ливн. осадки} 9/6 1000 м
[Sc Ac trans]
+9.1 +6.1 81 +7 +7 по сезону 1018.0 999.2
06 25.09 СЗ 4 10 км {ливн. осадки} 10/5 1260 м
[Sc Ac und]
+10.5 +6.7 77 +8 +8 по сезону 1017.0 998.3 +8.7 0.3
09 25.09 СЗ 8 10 км 9/5 1020 м
[Sc Ac trans]
+13.4 +5.3 58 +11 +11 по сезону 1015.8 997.3
12 25.09 СЗ 7 10 км 9/4 1000 м
[Sc Ac trans]
+12.5 +2.7 51 +10 +10 холодно 1014.3 995.8
15 25.09 СЗ 5 10 км слабый ливневой дождь 10/10 900 м
[Cb cap]
+9.3 +7.2 87 +6 +6 очень
холодно
1014.8 996.1
18 25.09 СЗ 7 10 км слабый ливневой дождь 10/10 300 м
[Cb cap]
+8.4 +6.7 89 +4 +4 очень
холодно
1014.5 995.7 +13.6 5
21 25.09 СЗ 6 10 км слабый ливневой дождь 10/10 210 м
[Cb cap]
+8.4 +6.9 90 +4 +4 холодно 1013.5 994.7
00 26.09 СЗ 5 10 км слабый дождь {ливн. осадки} 10/8 180 м
[Frnb As op]
+8.6 +7.3 92 +5 +5 прохладно 1013.2 994.5
03 26.09 СЗ 5 2600 м слабый дождь 10/10 120 м
[Frnb Ns]
+9.0 +8.2 95 +5 +5 прохладно 1013.0 994.3
06 26.09 С 5 10 км {дождь} 10/8 180 м
[Frnb As op]
+9.7 +8.7 93 +6 +6 прохладно 1014.1 995.4 +8.4 2
09 26.09 С 4 4000 м слабый дождь 10/8 150 м
[Frnb As op]
+10.1 +9.3 95 +7 +7 холодно 1015.2 996.5
12 26.09 С 4 10 км {дождь} 10/10 300 м
[Sc]
+11.1 +9.3 89 +9 +9 холодно 1016.1 997.5
15 26.09 С 4 10 км слабый ливневой дождь 10/10 270 м
[Cb cap]
+10.4 +8.6 89 +8 +8 холодно 1017.9 999.2
18 26.09 СЗ 3 3800 м в посл. час ливневой дождь 10/10 180 м
[Sc]
+10.1 +8.5 90 +8 +8 прохладно 1019.0 1000.3 +11.5 0.3
21 26.09 СЗ 3 4000 м дымка {дождь} 10/10 300 м
[Sc]
+10.3 +8.7 90 +8 +8 по сезону 1018.9 1000.2
00 27.09 СЗ 3 10 км {дождь} 10/10 300 м
[Sc]
+10.0 +7.5 84 +8 +8 по сезону 1018.6 999.8
03 27.09 СЗ 3 10 км 10/10 300 м
[Sc]
+9.8 +7.5 86 +8 +8 по сезону 1018.6 999.8
06 27.09 СЗ 3 10 км 10/10 300 м
[Sc]
+9.9 +7.2 83 +8 +8 по сезону 1019.0 1000.2 +9.6 0.0
09 27.09 СЗ 3 10 км 9/8 600 м
[Sc Ac trans]
+11.9 +8.0 77 +10 +11 прохладно 1019.0 1000.4
12 27.09 С 4 10 км 9/8 800 м
[Sc Ac trans]
+13.0 +6.3 64 +11 +12 холодно 1019.3 1000.7
15 27.09 СЗ 4 10 км слабый ливневой дождь 9/9 600 м
[Cb cap]
+10.6 +6.8 77 +8 +8 холодно 1020.3 1001.6
18 27.09 С 5 10 км {ливн. осадки} 9/9 1170 м
[Sc]
+10.4 +6.1 75 +8 +8 прохладно 1021.4 1002.6 +13.4 0.0
21 27.09 СЗ 3 10 км 10/10 800 м
[Sc]
+9.8 +5.2 73 +8 +8 по сезону 1021.4 1002.6
00 28.09 СЗ 4 10 км 10/10 1200 м
[Sc]
+9.0 +5.0 76 +6 +6 по сезону 1021.2 1002.3
03 28.09 СЗ 3 10 км 10/10 1000 м
[Sc]
+8.4 +4.5 76 +6 +6 по сезону 1021.5 1002.6
06 28.09 СЗ 3 10 км 9/9 1000 м
[Sc]
+9.0 +4.7 74 +7 +7 по сезону 1022.2 1003.3 +8.1
09 28.09 СЗ 4 10 км 9/6 1000 м
[Sc Ac trans]
+11.0 +2.9 57 +9 +10 прохладно 1022.4 1003.6
12 28.09 СЗ 4 10 км 9/9 1000 м
[Sc]
+11.4 +2.0 52 +9 +10 холодно 1021.9 1003.2
15 28.09 З 3 10 км 8/8 1000 м
[Sc]
+10.0 +1.9 57 +8 +8 холодно 1021.7 1002.9
18 28.09 З 2 10 км 8/8 1000 м
[Sc]
+6.6 +1.6 70 +5 +5 холодно 1022.2 1003.1 +11.4
21 28.09 штиль 0 10 км 3/3 1000 м
[Sc]
+4.9 +1.1 76 +4 +4 холодно 1021.6 1002.4
00 29.09 Ю 1 10 км 8/3 1000 м
[Sc Ac trans]
+5.3 +1.5 76 +4 +4 прохладно 1020.8 1001.7
03 29.09 Ю 2 10 км 8/3 1000 м
[Sc Ac trans]
+6.4 +1.1 69 +4 +4 прохладно 1019.2 1000.2
06 29.09 Ю 2 10 км 10/0
[Ac As]
+7.4 +2.6 72 +6 +6 прохладно 1018.0 999.1 +4.4
09 29.09 ЮВ 3 10 км слабый ливневой дождь 10/10 600 м
[Cb cap]
+9.6 +6.1 79 +7 +7 холодно 1016.1 997.4
12 29.09 ЮВ 4 10 км слабый ливневой дождь 10/10 600 м
[Cb cap]
+12.3 +8.3 77 +10 +10 холодно 1013.7 995.2

 

Местоположение метеостанции Харьков (Харьковская область, Украина): широта 49.97 долгота 36.13 высота над уровнем моря 155 м.

В архиве по умолчанию представлена погода в Харькове за последнюю неделю. Архивные данные за месяц целиком и за предыдущие месяцы, начиная с января 2011 года, Вы можете получить, выбрав интересующий диапазон дат из раскрывающегося списка и нажав кнопку "Ввод!".

Внимание! Время в таблицах - всемирное. Для получения местного времени необходимо прибавить поправку, которая в Харькове равна 2 ч.

Ветер - указаны скорость ветра в м/с - средняя за 10 мин, порывы в срок и между сроками (в фигурных скобках) и направление, откуда дует ветер: С - северный, СВ - северо-восточный, В - восточный, ЮВ - юго-восточный, Ю - южный, ЮЗ - юго-западный, З - западный, СЗ - северо-западный.
Видимость - горизонтальная дальность видимости в метрах или километрах. При видимости от 1 до 10 км при отсутствии осадков обычно наблюдается дымка, при ухудшении видимости до 1 км и менее - туман. В сухую погоду видимость может ухудшаться дымом, пылью или мглою.
Явления - указаны атмосферные явления, наблюдавшиеся в срок или в последний час перед сроком; фигурными скобками обозначены явления, наблюдавшиеся между сроками (за 1-3 часа до срока); квадратными скобками обозначены град или гололедные отложения с указанием их диаметра в мм.
Облачность - указаны через наклонную черту общая и нижняя облачность в баллах и высота нижней границы облаков в метрах; квадратными скобками обозначены формы облаков: Ci - перистые, Cs - перисто-слоистые, Cc - перисто-кучевые, Ac - высококучевые, As - высокослоистые, Sc - слоисто-кучевые, Ns - слоисто-дождевые, Cu - кучевые, Cb - кучево-дождевые. Подробнее классификацию облаков см. в Атласе облаков (PDF).
T - Температура воздуха - температура, измеренная на высоте 2 м над землей.
Td - Температура точки росы - температура, при понижении до которой содержащийся в воздухе водяной пар достигнет насыщения.
f - Относительная влажность воздуха - влажноcть воздуха, измеренная на высоте 2 м над землей.
Te - Эффективная температура - температура, которую ощущает одетый по сезону человек в тени. Характеристика душности погоды. При расчете учитывается влияние влажности воздуха и скорости ветра на теплоощущения человека.
Tes - Эффективная температура на солнце - температура, которую ощущает человек, с поправкой на солнечный нагрев. Характеристика знойности погоды. Зависит от высоты солнца над горизонтом, облачности и скорости ветра. Ночью, в пасмурную погоду, а также при ветре 12 м/с и более поправка равна нулю.
P - Атмосферное давление - приведенное к уровню моря атмосферное давление.
Po - Атмосферное давление - измеренное на уровне метеостанции атмосферное давление.
Tmin - Минимальная температура - минимум температуры воздуха на высоте 2 м над землей.
Tmax - Максимальная температура - максимум температуры воздуха на высоте 2 м над землей.
R - Количество осадков - Количество выпавших осадков, мм. При наведении курсора мыши на число - период времени, за который выпало указанное количество осадков.
S - Снежный покров - Высота снежного покрова, см. При наведении курсора мыши на число - состояние снежного покрова и степень покрытия местности в баллах.